Location: Canyon Rim
(40.8777°N, 111.8641°W)
Time: 07:11:55
(UTC+00:00)

X-37B - Pass Details

Date: 27 April 2021
Orbit: 386 x 389 km, 45.0° (Epoch: 08 May)

Event Time Altitude Azimuth Distance (km) Brightness Sun altitude
Exits shadow 11:49:29 - 281° (W) 1,677 3.3 -8.0°
Reaches altitude 10° 11:50:12 10° 276° (W) 1,413 2.9 -7.9°
Maximum altitude 11:53:02 30° 213° (SSW) 725 1.5 -7.4°
Drops below altitude 10° 11:55:51 10° 150° (SSE) 1,405 3.5 -6.9°
Sets 11:58:03 0° 139° (SE) 2,255 4.7 -6.5°
